www.pogodaiklimat.ru

Погода и климат >> Архив погоды >> Россия >> Приморский край >> Сосуново


ПОГОДА в Сосуново

  • Прогноз погоды в Сосуново
  • Монитор погоды в Сосуново
  • Климат города

АРХИВ ПОГОДЫ в Сосуново

Время (UTC), дата Ветер
(напр.,м/с)
 
Видим.   Явления Облачность Т
(С)
Тd
(С)
f
(%)
Тe
(С)
Тes
(С)
Комфортность P
(гПа)
Po
(гПа)
Тmin
(С)
Tmax
(С)
R
(мм)
R24
(мм)
S
(см)
00 18.05 Ю 3 50 км 10/0
[As op]
+12.3 +0.1 43 +11 +13 1014.6 1014.3
03 18.05 Ю 6 50 км 10/0
[Cs]
+12.0 -0.1 43 +10 +15 1013.5 1013.1
06 18.05 Ю 5
{11}
50 км 8/0
[Cs]
+11.0 +1.7 53 +9 +13 1012.8 1012.4
09 18.05 ЮЗ 4 50 км 10/0
[Ci fib]
+10.1 +1.4 55 +8 +8 1012.9 1012.5 +12.5
12 18.05 ЮЗ 2 50 км ясно +4.8 -0.4 69 +2 +2 1013.6 1013.2
15 18.05 ЮЗ 4 50 км ясно +2.1 -2.1 74 -3 -3 1013.7 1013.3
18 18.05 З 5 50 км ясно +2.3 -2.6 70 -3 -3 1013.2 1012.8
21 18.05 ЮЗ 6 50 км ясно +5.1 -2.2 59 +1 +1 1014.0 1013.6 +1.5
00 19.05 Ю 2 50 км 1/1 600 м
[Cu med, cong]
+14.0 -2.8 31 +14 +25 опасность
простуды
1014.2 1013.8
03 19.05 Ю 8-12
{12}
50 км 4/3 600 м
[Sc Cs]
+15.5 -2.6 29 +14 +16 1014.7 1014.3
06 19.05 Ю 9-13
{15}
50 км 4/4 600 м
[Sc]
+15.1 -1.6 32 +13 +14 1014.0 1013.7
09 19.05 З 2
{14}
50 км 8/0
[As op Cs]
+16.7 +0.2 33 +17 +18 1014.1 1013.7 +16.7
12 19.05 ЮЗ 4 50 км 1/0
[Ci sp]
+12.3 +5.1 61 +11 +11 1014.3 1013.9
15 19.05 С 5-11
{15}
50 км ясно +9.5 +1.0 55 +7 +7 1018.3 1017.9
18 19.05 С 7
{11}
50 км ясно +7.2 +2.2 71 +3 +3 1019.0 1018.6
21 19.05 С 8-11
{11}
20 км 8/6 600 м
[Sc Cs]
+8.3 +1.9 64 +4 +4 1020.8 1020.4 +6.8
00 20.05 СВ 6
{11}
20 км ясно +8.6 +2.9 67 +5 +10 1020.9 1020.5
03 20.05 СВ 7
{11}
20 км 5/5 600 м
[Cu hum]
+9.8 +2.9 62 +6 +9 1020.2 1019.9
06 20.05 СВ 4 20 км 10/10 600 м
[Sc]
+8.2 +3.2 71 +5 +5 1019.4 1019.0
09 20.05 ЮВ 2 20 км 5/0
[Ci fib]
+8.8 +2.3 64 +7 +8 1019.0 1018.6 +10.2
12 20.05 Ю 2 20 км ясно +6.4 +2.2 74 +4 +4 1018.8 1018.4
15 20.05 ЮЗ 4 20 км ясно +4.6 +2.1 84 0 0 1016.6 1016.2
18 20.05 ЮЗ 5 20 км ясно +4.3 +2.3 87 -1 -1 1014.6 1014.2
21 20.05 ЮЗ 6 20 км 8/8 600 м
[Sc]
+7.8 +3.6 75 +4 +4 1013.2 1012.8 +2.9
00 21.05 ЮЗ 5 50 км 9/9 600 м
[Sc]
+14.4 +6.1 57 +13 +14 1012.1 1011.8
03 21.05 С 5 20 км ливневой дождь, в посл. час гроза 10/10 600 м
[Cb cap]
+19.2 +9.2 52 +20 +20 1012.2 1011.8
06 21.05 СВ 10-15
{20}
20 км в посл. час ливневой дождь {гроза} 10/10 600 м
[Cb cap]
+11.5 +4.8 63 +8 +8 1014.8 1014.4
09 21.05 СВ 8-11
{16}
20 км 10/10 600 м
[Cb cap]
+8.3 +4.2 75 +4 +4 1016.1 1015.7 +21.7 3
12 21.05 С 5
{13}
10 км слабый ливневой дождь 10/10 600 м
[Cb cap]
+8.4 +4.0 74 +5 +5 1018.9 1018.5
15 21.05 З 2
{10}
20 км {ливн. осадки} ясно +5.8 +4.1 89 +3 +3 1017.8 1017.4
18 21.05 ЮЗ 4 20 км {ливн. осадки} ясно +5.0 +3.8 92 +1 +1 1016.8 1016.4
21 21.05 ЮЗ 5 50 км ясно +7.2 +5.9 91 +3 +4 1016.1 1015.7 +4.7 1
00 22.05 Ю 6 50 км ясно +12.1 +5.6 64 +10 +14 1015.0 1014.6
03 22.05 Ю 9-14
{14}
20 км 3/3 600 м
[Cu med, cong]
+13.2 +2.1 47 +11 +12 1011.2 1010.8
06 22.05 Ю 11-16
{16}
20 км 1/1 600 м
[Sc]
+11.5 +4.1 60 +8 +8 1008.6 1008.2
09 22.05 Ю 8-12
{16}
20 км ясно +9.9 +4.9 71 +6 +6 1006.6 1006.2 +15.2
12 22.05 З 2
{13}
20 км ясно +7.9 +4.4 79 +6 +6 1006.5 1006.1
15 22.05 ЮЗ 5
{11}
20 км ясно +6.7 +4.0 83 +3 +3 1004.5 1004.1
18 22.05 ЮЗ 4 20 км ясно +5.5 +3.5 87 +1 +1 1002.5 1002.1
21 22.05 ЮЗ 5 20 км 10/0
[Cs]
+10.3 +5.5 72 +7 +8 1002.6 1002.2 +5.2
00 23.05 Ю 7-11
{11}
20 км 10/0
[As op]
+10.4 +3.8 64 +7 +8 1002.1 1001.7
03 23.05 Ю 8-11
{14}
20 км 10/10 600 м
[Sc]
+10.5 +4.9 68 +7 +7 1001.2 1000.8
06 23.05 Ю 3
{11}
20 км слабый ливневой дождь 10/10 600 м
[Cb cap]
+11.4 +4.7 63 +10 +10 999.2 998.8
09 23.05 З 1 20 км слабый ливневой дождь 10/10 600 м
[Cb cap]
+7.3 +5.5 88 +6 +6 997.2 996.8 +16.1 1
12 23.05 ЮЗ 3 10 км слабый ливневой дождь 10/10 600 м
[Cb cap]
+7.6 +5.5 87 +5 +5 997.1 996.7
15 23.05 ЮЗ 5
{12}
20 км {ливн. осадки} 6/6 600 м
[Sc]
+8.4 +2.1 65 +5 +5 998.4 998.0
18 23.05 З 2 20 км {ливн. осадки} ясно +3.1 +1.5 89 0 0 999.9 999.5
21 23.05 ЮЗ 3 20 км ясно +5.1 +3.1 87 +2 +3 1000.8 1000.4 +2.1 0.4
00 24.05 Ю 4 50 км 8/1 1000 м
[Cu hum Cs]
+10.8 +2.6 57 +9 +15 1000.5 1000.1
03 24.05 Ю 5
{13}
20 км слабый ливневой дождь 10/10 600 м
[Cb cap]
+11.1 +3.4 59 +9 +9 1000.6 1000.2
06 24.05 Ю 4
{11}
20 км {ливн. осадки} 10/10 600 м
[Cb cap]
+8.1 +4.6 79 +5 +5 999.4 999.0
09 24.05 ЮЗ 3 20 км слабый ливневой дождь 10/10 300 м
[Cb cap]
+6.6 +5.2 91 +3 +3 999.0 998.6 +14.9 0.9
12 24.05 В 2 10 км слабый ливневой дождь 10/10 300 м
[Cb cap]
+6.1 +4.7 91 +4 +4 998.4 998.0
15 24.05 С 3 20 км {ливн. осадки} 10/10 300 м
[St]
+5.7 +4.7 93 +2 +2 998.3 997.9
18 24.05 С 1 20 км {ливн. осадки} 10/10 600 м
[Sc]
+6.2 +5.0 92 +5 +5 998.3 997.9
21 24.05 СВ 2 20 км 4/4 600 м
[Cu hum]
+6.7 +5.4 91 +4 +6 998.8 998.4 +5.0 0.7

 

Местоположение метеостанции Сосуново (Приморский край, Россия): широта 46.55 долгота 138.30 высота над уровнем моря 4 м.

В архиве по умолчанию представлена погода в Сосуново за последнюю неделю. Архивные данные за месяц целиком и за предыдущие месяцы, начиная с января 2011 года, Вы можете получить, выбрав интересующий диапазон дат из раскрывающегося списка и нажав кнопку "Ввод!".


*Определитесь, кто Вы:
робот инопланетянин человек

Внимание! Время в таблицах - всемирное. Для получения местного времени необходимо прибавить поправку, которая в Сосуново равна 10 ч.

Смотрите также архив погоды в соседних городах и на ближайших метеорологических станциях:

Погода в Агзу (Приморский край, Россия) (117 км)
Погода в Сукпае (Хабаровский край, Россия) (142 км)
Погода в Малой Кеме (Приморский край, Россия) (158 км)
Погода в Гвасюгах (Хабаровский край, Россия) (208 км)
Погода в Тернее (Приморский край, Россия) (217 км)
Погода на Остров Монерон (Сахалинская область, Россия) (225 км)
Погода в Красном Яре (Приморский край, Россия) (230 км)
Погода в Глубинном (Приморский край, Россия) (237 км)
Погода в Бичевой (Хабаровский край, Россия) (245 км)
Погода в Тивяку (Хабаровский край, Россия) (248 км)

Пояснения к столбцам:

Ветер - указаны скорость ветра в м/с - средняя за 10 мин, порывы в срок и между сроками (в фигурных скобках) и направление, откуда дует ветер: С - северный, СВ - северо-восточный, В - восточный, ЮВ - юго-восточный, Ю - южный, ЮЗ - юго-западный, З - западный, СЗ - северо-западный.
Видимость - горизонтальная дальность видимости в метрах или километрах. При видимости от 1 до 10 км при отсутствии осадков обычно наблюдается дымка, при ухудшении видимости до 1 км и менее - туман. В сухую погоду видимость может ухудшаться дымом, пылью или мглою.
Явления - указаны атмосферные явления, наблюдавшиеся в срок или в последний час перед сроком; фигурными скобками обозначены явления, наблюдавшиеся между сроками (за 1-3 часа до срока); квадратными скобками обозначены град или гололедные отложения с указанием их диаметра в мм.
Облачность - указаны через наклонную черту общая и нижняя облачность в баллах и высота нижней границы облаков в метрах; квадратными скобками обозначены формы облаков: Ci - перистые, Cs - перисто-слоистые, Cc - перисто-кучевые, Ac - высококучевые, As - высокослоистые, Sc - слоисто-кучевые, Ns - слоисто-дождевые, Cu - кучевые, Cb - кучево-дождевые. Подробнее классификацию облаков см. в Атласе облаков (PDF).
T - Температура воздуха - температура, измеренная на высоте 2 м над землей.
Td - Температура точки росы - температура, при понижении до которой содержащийся в воздухе водяной пар достигнет насыщения.
f - Относительная влажность воздуха - влажноcть воздуха, измеренная на высоте 2 м над землей.
Te - Эффективная температура - температура, которую ощущает одетый по сезону человек в тени. Характеристика душности погоды. При расчете учитывается влияние влажности воздуха и скорости ветра на теплоощущения человека.
Tes - Эффективная температура на солнце - температура, которую ощущает человек, с поправкой на солнечный нагрев. Характеристика знойности погоды. Зависит от высоты солнца над горизонтом, облачности и скорости ветра. Ночью, в пасмурную погоду, а также при ветре 12 м/с и более поправка равна нулю.
P - Атмосферное давление - приведенное к уровню моря атмосферное давление.
Po - Атмосферное давление - измеренное на уровне метеостанции атмосферное давление.
Tmin - Минимальная температура - минимум температуры воздуха на высоте 2 м над землей.
Tmax - Максимальная температура - максимум температуры воздуха на высоте 2 м над землей.
R - Количество осадков - Количество выпавших осадков за период времени, мм. При наведении курсора мыши на число - период времени, за который выпало указанное количество осадков.
R24 - Количество осадков - Количество выпавших осадков за 24 часа, мм.
S - Снежный покров - Высота снежного покрова, см. При наведении курсора мыши на число - состояние снежного покрова и степень покрытия местности в баллах.